Home > Weather > Atascadero > Past weeks

Flag for USA Past Weather in Atascadero, California, USA — Yesterday and Last 2 Weeks

Now
68 °F

Clear.


Feels Like: 68 °F
Forecast: 56 / 89 °F
Wind: 8 mph from Northwest

Location: Paso Robles Municipal Airport

Current Time: Jul 25, 2016 at 11:37:39 PM

Latest Report: Jul 25, 2016 at 10:53 PM


Visibility: 9 mi

Pressure: 29.89 "Hg

Humidity: 53%

Dew Point: 50 °F

Location of AtascaderoLocation

Past Weather in Atascadero — Graph

°F

Atascadero Temperature Yesterday

Maximum temperature yesterday: 97 °F (at 11:53 AM)
Minimum temperature yesterday: 58 °F (at 5:53 AM)
Average temperature yesterday: 76 °F

High & Low Weather Summary for the Past Weeks

 TemperatureHumidityPressure
High105 °F (Jul 23, 4:53 PM)97% (Jul 17, 5:53 AM)30.09 "Hg (Jul 17, 5:53 AM)
Low50 °F (Jul 16, 5:53 AM)7% (Jul 12, 3:53 PM)29.77 "Hg (Jul 23, 5:53 PM)
Average73 °F43%29.93 "Hg
* Reported Jul 10 9:53 PM — Jul 25 9:53 PM, Atascadero, Weather by CustomWeather, © 2016

Note: Actual official high and low records may vary slightly from our data, if they occured in-between our weather recording intervals... More about our weather records

Advertising

Atascadero Weather History for the Previous 24 Hours

Scroll right to see more
 ConditionsComfort  
Time TempWeatherWind HumidityBarometerVisibility
9:53 PM
Mon, Jul 25
73 °FClear.9 mph43%29.88 "Hg7 mi
8:53 PM80 °FSunny.9 mph26%29.86 "Hg10 mi
7:53 PM86 °FSunny.9 mph19%29.85 "Hg10 mi
6:53 PM90 °FSunny.9 mph15%29.85 "Hg10 mi
5:53 PM91 °FSunny.13 mph15%29.86 "Hg10 mi
4:53 PM94 °FSunny.13 mph15%29.87 "Hg10 mi
3:53 PM95 °FSunny.10 mph14%29.87 "Hg10 mi
2:53 PM95 °FSunny.15 mph15%29.88 "Hg10 mi
1:53 PM97 °FSunny.13 mph16%29.89 "Hg10 mi
12:53 PM95 °FSunny.13 mph16%29.90 "Hg10 mi
11:53 AM88 °FSunny.N/A26%29.92 "Hg10 mi
10:53 AM81 °FSunny.No wind34%29.94 "Hg10 mi
9:53 AM71 °FSunny.No wind49%29.95 "Hg10 mi
8:53 AM63 °FSunny.No wind65%29.96 "Hg10 mi
7:53 AM58 °FSunny.No wind75%29.96 "Hg10 mi
6:53 AM54 °FClear.No wind74%29.95 "Hg10 mi
5:53 AM53 °FClear.No wind80%29.93 "Hg10 mi
4:53 AM54 °FClear.No wind77%29.92 "Hg10 mi
3:53 AM54 °FClear.No wind74%29.91 "Hg10 mi
2:53 AM56 °FClear.No wind72%29.91 "Hg10 mi
1:53 AM58 °FClear.3 mph75%29.91 "Hg10 mi
12:53 AM60 °FClear.5 mph69%29.91 "Hg10 mi
11:53 PM
Sun, Jul 24
63 °FClear.No wind63%29.90 "Hg10 mi
Weather by CustomWeather, © 2016

See weather overviewHow to use our weather pages